Flag for Namibia Weather past 2 weeks in Walvis Bay, Namibia

Now
48 °F

Cool.


Feels Like: 46 °F
Forecast: 56 / 64 °F
Wind: 6 mph from Northwest

Location: Walvis Bay

Current Time: Jul 23, 2014 at 4:27:03 AM

Latest Report: Jul 23, 2014 at 4:00 AM


Visibility: N/A

Pressure: 30.04 "Hg

Humidity: 76%

Dew point: 41 °F

Location of Walvis BayLocation

Historic Weather in Walvis Bay — Graph

°F

Walvis Bay temperature yesterday

Maximum temperature yesterday: 70 °F (at 3:00 PM)
Minimum temperature yesterday: 46 °F (at 3:00 AM)
Average temperature yesterday: 55 °F

Past Weeks' High & Low Weather Summary

 TemperatureHumidityPressure
High82 °F (Jul 9, 2:00 PM)100% (Jul 10, 3:00 AM)30.24 "Hg (Jul 10, 3:00 AM)
Low39 °F (Jul 8, 3:00 AM)12% (Jul 9, 10:00 AM)30.01 "Hg (Jul 14, 5:00 AM)
Average53 °F72%30.13 "Hg
* Reported Jul 8 3:00 AM — Jul 23 3:00 AM, Walvis Bay, Weather by CustomWeather, © 2014

Note: Actual official high and low records may vary slightly from our data, if they occured in-between our weather recording intervals... More about our weather records

Advertising

Walvis Bay weather history for previous 24 hours

 ConditionsComfort  
Time TempWeatherWind HumidityBarometerVisibility
3:00 AM
Jul 23
48 °FCool.7 mph66%30.04 "HgN/A
2:00 AM52 °FCool.3 mph62%30.04 "HgN/A
1:00 AM48 °FCool.8 mph82%30.04 "HgN/A
12:00 AM50 °FCool.7 mph88%30.07 "HgN/A
6:00 PM
Jul 22
61 °FCool.3 mph63%30.07 "HgN/A
5:00 PM66 °FClear.6 mph56%30.07 "Hg10 mi
4:00 PM68 °FSunny.8 mph53%30.04 "Hg10 mi
3:00 PM70 °FMild.5 mph46%30.07 "HgN/A
2:00 PM68 °FMild.5 mph49%30.07 "HgN/A
1:00 PM64 °FSunny.5 mph52%30.09 "Hg10 mi
12:00 PM61 °FSunny.3 mph63%30.15 "Hg10 mi
11:00 AM55 °FSunny.5 mph82%30.18 "Hg10 mi
10:00 AM50 °FCool.1 mph94%30.18 "HgN/A
9:00 AM48 °FFog.1 mph94%30.18 "Hg1 mi
8:00 AM46 °FFog.2 mph93%30.18 "Hg0 mi
7:00 AM46 °FFog.3 mph100%30.18 "Hg0 mi
6:00 AM48 °FFog.2 mph94%30.18 "Hg0 mi
5:00 AM48 °FFog.3 mph94%30.15 "Hg0 mi
4:00 AM48 °FCool.5 mph94%30.15 "HgN/A
Weather by CustomWeather, © 2014

See weather overviewHow to use our weather pages